TimeCST,TemperatureF,Dew PointF,Humidity,Sea Level PressureIn,VisibilityMPH,Wind Direction,Wind SpeedMPH,Gust SpeedMPH,PrecipitationIn,Events,Conditions,WindDirDegrees,DateUTC
12:53 AM,21.9,17.1,82,29.64,5.0,West,19.6,31.1,0.00,Snow,Light Snow,270,2013-01-31 06:53:00
1:24 AM,21.2,15.8,80,29.64,9.0,West,19.6,32.2,0.00,,Overcast,280,2013-01-31 07:24:00
1:48 AM,21.2,15.8,80,29.65,7.0,West,17.3,-,0.00,Snow,Light Snow,280,2013-01-31 07:48:00
1:53 AM,21.9,16.0,78,29.68,5.0,West,13.8,23.0,0.00,Snow,Light Snow,270,2013-01-31 07:53:00
2:53 AM,19.9,14.0,78,29.70,5.0,WSW,20.7,28.8,0.00,Snow,Light Snow,250,2013-01-31 08:53:00
3:28 AM,19.4,15.8,86,29.68,1.8,West,17.3,24.2,0.00,Snow,Light Snow,260,2013-01-31 09:28:00
3:38 AM,19.4,14.0,80,29.69,3.0,West,19.6,-,0.00,Snow,Light Snow,260,2013-01-31 09:38:00
3:53 AM,19.0,12.9,77,29.72,3.0,West,18.4,29.9,0.00,Snow,Light Snow,270,2013-01-31 09:53:00
4:11 AM,19.4,12.2,74,29.70,9.0,West,21.9,28.8,0.00,Snow,Light Snow,270,2013-01-31 10:11:00
4:48 AM,19.4,10.4,68,29.71,7.0,West,15.0,26.5,0.00,Snow,Light Snow,280,2013-01-31 10:48:00
4:53 AM,19.0,10.0,68,29.75,8.0,West,21.9,27.6,0.00,Snow,Light Snow,270,2013-01-31 10:53:00
5:39 AM,17.6,12.2,79,29.72,5.0,West,21.9,26.5,0.00,Snow,Light Snow,260,2013-01-31 11:39:00
5:53 AM,18.0,10.9,74,29.75,5.0,West,21.9,26.5,0.00,Snow,Light Snow,270,2013-01-31 11:53:00
6:53 AM,18.0,10.0,71,29.78,10.0,West,17.3,-,0.00,,Overcast,260,2013-01-31 12:53:00
7:53 AM,19.0,10.9,71,29.81,10.0,West,17.3,24.2,0.00,,Overcast,260,2013-01-31 13:53:00
8:24 AM,19.4,12.2,74,29.79,2.0,West,21.9,27.6,0.00,Snow,Light Snow,260,2013-01-31 14:24:00
8:40 AM,17.6,10.4,73,29.80,6.0,West,20.7,27.6,0.00,Snow,Light Snow,270,2013-01-31 14:40:00
8:53 AM,19.0,12.0,74,29.83,3.0,West,20.7,25.3,0.00,Snow,Light Snow,270,2013-01-31 14:53:00
9:53 AM,19.9,12.0,71,29.85,10.0,West,17.3,-,0.00,,Overcast,280,2013-01-31 15:53:00
10:53 AM,19.0,10.9,71,29.88,9.0,WSW,24.2,28.8,0.00,Snow,Light Snow,250,2013-01-31 16:53:00
11:53 AM,19.0,10.0,68,29.89,9.0,West,20.7,28.8,0.00,Snow,Light Snow,260,2013-01-31 17:53:00
12:53 PM,18.0,8.1,65,29.90,10.0,West,20.7,29.9,0.00,,Overcast,270,2013-01-31 18:53:00
1:16 PM,17.6,8.6,68,29.87,6.0,West,20.7,-,0.00,Snow,Light Snow,260,2013-01-31 19:16:00
1:53 PM,17.1,8.1,68,29.91,4.0,West,25.3,31.1,0.00,Snow,Light Snow,260,2013-01-31 19:53:00
2:33 PM,17.6,10.4,73,29.87,2.5,WNW,17.3,25.3,0.00,Snow,Light Snow,290,2013-01-31 20:33:00
2:41 PM,15.8,10.4,79,29.88,1.8,West,18.4,25.3,0.00,Snow,Light Snow,280,2013-01-31 20:41:00
2:44 PM,15.8,8.6,73,29.88,3.0,West,18.4,25.3,0.00,Snow,Light Snow,280,2013-01-31 20:44:00
2:53 PM,16.0,9.0,74,29.92,2.5,West,17.3,25.3,0.00,Snow,Light Snow,270,2013-01-31 20:53:00
3:03 PM,15.8,8.6,73,29.89,1.2,West,16.1,-,0.00,Snow,Light Snow,260,2013-01-31 21:03:00
3:12 PM,15.8,8.6,73,29.88,2.5,West,19.6,27.6,0.00,Snow,Light Snow,260,2013-01-31 21:12:00
3:19 PM,15.8,8.6,73,29.88,5.0,West,19.6,27.6,0.00,Snow,Light Snow,260,2013-01-31 21:19:00
3:53 PM,16.0,8.1,71,29.94,7.0,West,18.4,-,0.00,Snow,Light Snow,280,2013-01-31 21:53:00
4:24 PM,15.8,8.6,73,29.91,2.0,West,16.1,-,0.00,Snow,Light Snow,280,2013-01-31 22:24:00
4:40 PM,15.8,6.8,68,29.92,9.0,WNW,16.1,-,0.00,,Overcast,290,2013-01-31 22:40:00
4:53 PM,15.1,6.1,68,29.96,10.0,West,20.7,25.3,0.00,,Overcast,270,2013-01-31 22:53:00
5:23 PM,14.0,5.0,67,29.94,10.0,West,20.7,28.8,N/A,,Overcast,270,2013-01-31 23:23:00
6:22 PM,12.2,3.2,67,29.97,10.0,West,21.9,27.6,N/A,,Overcast,280,2013-02-01 00:22:00
6:53 PM,12.9,3.0,65,30.03,10.0,West,21.9,28.8,N/A,,Overcast,270,2013-02-01 00:53:00
7:45 PM,10.4,1.4,67,30.01,10.0,West,21.9,28.8,N/A,,Mostly Cloudy,280,2013-02-01 01:45:00
7:53 PM,10.9,1.0,64,30.06,10.0,West,16.1,28.8,N/A,,Mostly Cloudy,280,2013-02-01 01:53:00
8:53 PM,10.0,1.9,70,30.08,5.0,West,21.9,27.6,0.00,Snow,Light Snow,280,2013-02-01 02:53:00
9:28 PM,8.6,1.4,73,30.05,4.0,West,18.4,26.5,0.00,Snow,Light Snow,280,2013-02-01 03:28:00
9:53 PM,9.0,1.0,70,30.10,5.0,WNW,23.0,27.6,0.00,Snow,Light Snow,290,2013-02-01 03:53:00
10:53 PM,8.1,1.0,73,30.13,8.0,West,18.4,26.5,0.00,,Overcast,270,2013-02-01 04:53:00
11:21 PM,8.6,-0.4,67,30.10,10.0,West,18.4,-,N/A,,Overcast,270,2013-02-01 05:21:00
11:53 PM,7.0,-0.0,73,30.16,10.0,West,11.5,-,N/A,,Mostly Cloudy,280,2013-02-01 05:53:00